Overview Statistics Trail Chart Weather Telemetry Raw packets
 

This is the latest recevied weather packets stored in our database for station/object HS3MXC-2. If no packets are shown the sender has not sent any weather packets the latest 10 day(s).

<< 48 49 50 51 52 53 54 >>
Time Temp. Humidity Pressure Rain* Wind** Luminosity Snow
1777275007 25° C 43% 991.9 hPa - - - -
1777274700 25° C 44% 991.9 hPa - - - -
1777274394 25.56° C 44% 992.1 hPa - - - -
1777274086 25° C 44% 992.2 hPa - - - -
1777273780 25.56° C 45% 992.2 hPa - - - -
1777273473 25.56° C 45% 992.3 hPa - - - -
1777273164 26.11° C 45% 992.5 hPa - - - -
1777272547 26.67° C 46% 992.7 hPa - - - -
1777272240 26.67° C 47% 992.9 hPa - - - -
1777271931 26.67° C 47% 993.1 hPa - - - -
1777271624 27.22° C 47% 993.1 hPa - - - -
1777271316 27.78° C 48% 993.3 hPa - - - -
1777271009 30.56° C 48% 993.4 hPa - - - -
1777270703 31.67° C 55% 993.7 hPa - - - -
1777270082 31.11° C 52% 993.9 hPa - - - -
1777269775 31.11° C 45% 993.9 hPa - - - -
1777269468 30.56° C 41% 994.1 hPa - - - -
1777269161 30° C 38% 994.2 hPa - - - -
1777268547 27.78° C 38% 994.4 hPa - - - -
1777267930 27.22° C 41% 994.6 hPa - - - -
1777267624 26.11° C 44% 994.8 hPa - - - -
1777267317 25.56° C 45% 995 hPa - - - -
1777267010 25.56° C 44% 995.1 hPa - - - -
1777266397 25.56° C 43% 995.3 hPa - - - -
1777265783 25.56° C 42% 995.4 hPa - - - -

* Rain since midnight (hover to see other rain measurements)
** Current wind speed in m/s (hover to see current wind gust speed)